FENGYUN 1C DEB, 33664

Orbit data source: Space-Track

FENGYUN 1C DEB, 33664 is space debris in SSO originally from a launch on Mon, 10 May 1999 UTC launched from the Taiyaun Space Center, China (TSC). Fengyun 1C debris stems from the Chinese weather satellite Fengyun-1C, which was intentionally destroyed by a Chinese anti-satellite missile in 2007. This event dramatically increased the amount of space debris, with thousands of trackable fragments posing hazards to satellites and human spaceflight. The Fengyun 1C debris cloud has become a focal point in discussions about space sustainability and the need for international regulations to prevent the creation of new debris.

Loading next visibility...
Identifier
33664, 1999-025DEZ
Orbit
SSO
Country
Flag of CNCN / PRC
Related business
Manufacturer
Unknown
Mission
Spacecraft
Bus & Motor
Unknown
Mass
Unknown
Launch date (UTC)
1999-05-10 (27 years ago)
Launch vehicle
Unknown
Launch site
Taiyaun Space Center, China (TSC)
Object type
Payload
Rocket body
Debris
Shape & HBR
Unknown shape, 0.1 m
Radar Cross Section
Small (<0.1 m²)

Expand to show TLE details & history
Last TLE update: 3 days ago

TLE from 3 days ago
0 FENGYUN 1C DEB
1 33664U 99025DEZ 26225.66275196 -.00000053  00000-0 -67152-5 0  9992
2 33664  98.7345   9.7082 0164380  75.2893 286.6430 14.04286138941620
Epoch: 2026-08-13T15:54Z
TLE epoch observation values (Epoch: 2026-08-13T15:54:21.769Z)
Latitude
0.00004°
Longitude
169.01838°
Altitude
849.524 km
Speed
7.444 km/s
True Right ascension
00h 38m 49s
True Declination
0° 00' 00"
Sunlit
Object was in full shadow at epoch
Visualization orbit readout
Latitude
Unknown
Longitude
Unknown
Altitude
Unknown
Speed
Unknown
Apparent Right ascension
Unknown
Apparent Declination
Unknown
Sunlit
N/A
Visualization observer readout
Local Sidereal Time
16:16:13
Azimuth
Unknown
Elevation
Unknown
Doppler factor
Unknown
Orbital elements
Apogee altitude
995.417 km
Perigee altitude
756.924 km
Semi-major axis
7,254.307 km
Eccentricity
0.01644
Inclination
98.7345°
RAAN
9.7082°
Arg. of periapsis
75.2893°
True anomaly
284.82788°
Mean anomaly
286.643°
Eccentric anomaly
285.73647°
Mean motion
3.51277 °/min
Orbital period
102.48 mins
BSTAR
-0.0000067152
Loading maneuver chart data...
Computing Atmospheric mass density...
Loading historical data...
Loading historical data...
Loading historical data...
Loading historical data...
Loading historical data...
Loading historical data...
Loading historical data...

Documentation

Showing up to 5 results
|